This demonstration page uses our WeatherBlox Daily Observations layout. Learn more.

Left ArrowRight Arrow

Hourly Observations for August 5, 2015

Temp ( °F °C ) Dew Point ( °F °C ) Humidity (%) Winds ( mph kmh ) Pressure ( in mb ) Visibility ( mi km ) Precip ( " mm )
12:53 am 00:53 Clear 67 19.4 64 17.8 91 91 N 7 11 30.01 1016 10 16 N/A
1:53 am 01:53 Clear 70 21.1 64 17.8 82 82 N 5 7 30.01 1016 10 16 N/A
2:53 am 02:53 Clear 66 18.9 64 17.8 93 93 N N/A 30.02 1017 10 16 N/A
3:53 am 03:53 Clear 65 18.3 64 17.8 97 97 N N/A 30.02 1017 10 16 N/A
4:53 am 04:53 Clear 63 17.2 62 16.7 97 97 N N/A 30.03 1017 10 16 N/A
5:53 am 05:53 Clear 62 16.7 60 15.6 93 93 N N/A 30.04 1017 10 16 N/A
6:53 am 06:53 Sunny 61 16.1 60 15.6 97 97 N N/A 30.06 1018 10 16 N/A
7:53 am 07:53 Sunny 67 19.4 64 17.8 91 91 N N/A 30.06 1018 10 16 N/A
8:53 am 08:53 Sunny 71 21.7 64 17.8 79 79 N N/A 30.06 1018 10 16 N/A
9:53 am 09:53 Sunny 75 23.9 64 17.8 69 69 N N/A 30.06 1018 10 16 N/A
10:53 am 10:53 Sunny 78 25.6 62 16.7 58 58 N N/A 30.07 1018 10 16 N/A
11:53 am 11:53 Sunny 80 26.7 61 16.1 52 52 N N/A 30.06 1018 10 16 N/A
12:53 pm 12:53 Sunny 82 27.8 60 15.6 47 47 N N/A 30.05 1018 10 16 N/A
1:53 pm 13:53 Sunny 83 28.3 61 16.1 48 48 NE 3 6 30.04 1017 10 16 N/A
2:53 pm 14:53 Sunny 84 28.9 60 15.6 44 44 N N/A 30.02 1017 10 16 N/A
3:53 pm 15:53 Sunny 84 28.9 62 16.7 48 48 E 8 13 30.01 1016 10 16 N/A
4:53 pm 16:53 Sunny 84 28.9 63 17.2 49 49 ENE 5 7 30.00 1016 10 16 N/A
5:53 pm 17:53 Sunny 83 28.3 63 17.2 51 51 E 5 7 29.99 1016 10 16 N/A
6:53 pm 18:53 Mostly Sunny 81 27.2 65 18.3 58 58 E 5 7 29.98 1015 10 16 N/A
7:53 pm 19:53 Mostly Cloudy 79 26.1 64 17.8 60 60 ESE 5 7 29.98 1015 10 16 N/A
8:53 pm 20:53 Partly Cloudy 74 23.3 66 18.9 76 76 N N/A 29.98 1015 10 16 N/A
9:53 pm 21:53 Clear 71 21.7 66 18.9 84 84 ENE 3 6 29.98 1015 10 16 N/A
10:53 pm 22:53 Clear 74 23.3 64 17.8 71 71 E 6 9 29.98 1015 10 16 N/A
11:53 pm 23:53 Clear 73 22.8 62 16.7 69 69 E 7 11 29.97 1015 10 16 N/A

Powered by AerisWeather